Simultaneous Nadir Overpasses (SNOs) Predictions

Prediction of SNOs between FY3D and AQUA Satellite Orbit:

Table of predicted SNOs for the next 14.0 days since TLE Epoch: 8/31/2024
Index Date (FY3D) Time (FY3D) Lat,Lon (FY3D) SZA (FY3D ) Date (AQUA) Time (AQUA) Lat,Lon (AQUA) SZA (AQUA ) Distance(km) Time Diff (sec)
1 09/02/2024 02:59:30 -79.55, -63.17 107.73 09/02/2024 03:00:27 -79.55, -63.26 107.74 1.85 57
2 09/02/2024 03:50:09 79.33, 106.03 71.97 09/02/2024 03:49:43 79.34, 105.90 71.99 3.01 26
3 09/04/2024 15:02:59 79.48, -63.34 73.07 09/04/2024 15:03:05 79.47, -63.29 73.06 1.09 6
4 09/04/2024 15:51:26 -73.67, 129.49 113.09 09/04/2024 15:50:13 -73.33, 127.43 113.52 75.33 73
5 09/07/2024 02:15:47 79.56, 127.72 74.10 09/07/2024 02:16:22 79.56, 127.79 74.09 1.41 35
6 09/07/2024 03:06:24 -79.32, -62.83 106.24 09/07/2024 03:05:36 -79.32, -62.81 106.23 0.32 48
7 09/09/2024 13:28:32 79.57, -40.48 75.03 09/09/2024 13:29:33 79.58, -40.58 75.02 2.10 61
8 09/09/2024 14:19:12 -79.42, 128.20 105.19 09/09/2024 14:18:49 -79.41, 128.31 105.20 2.45 23



Historial Predications of SNOs between FY3D and AQUA
